Regional Weather Roundup
Issued by NWS Midland/Odessa, TX

Skip options and go directly to product.
Home | Oldest Version | Previous Version | Current Version | All | Text Only | Save Text | Print | Product List | Glossary On

Skip product version selection by date and time.   
200
ASUS44 KMAF 020310
RWRMAF
MIDLAND AREA WEATHER ROUNDUP
NATIONAL WEATHER SERVICE MIDLAND TX
900 PM CST SUN MAR 01 2015

...IN SOUTHWEST TEXAS AND SOUTHEAST NEW MEXICO...

CITY           SKY/WX    TMP DP  RH WIND       PRES   REMARKS
ALPINE         PTCLDY    41  38  91 E5        30.28R WCI  38
ANDREWS        CLOUDY    32  32 100 E9        30.31R FOG     WCI  24
ARTESIA        MOCLDY    36  36 100 CALM      30.26R FOG
BIG SPRING     CLOUDY    33  32  94 NE9       30.34R WCI  26
CARLSBAD       MOCLDY    39  34  82 S7        30.24R WCI  34
DRYDEN           N/A     47  45  93 E8        30.23R
FORT STOCKTON  CLOUDY    41  40  96 NE10      30.26R WCI  35
GUAD PASS      NOT AVBL
HOBBS          CLOUDY    32  32 100 E10       30.29R FOG     WCI  24
MARFA          CLOUDY    46  37  71 NE7       30.21R
MIDLAND AIRPK  CLOUDY    34  34 100 NE10      30.32R FOG     WCI  26
MIDLAND INTL   CLOUDY    34  33  96 NE10      30.30R FOG     WCI  26
ODESSA         FOG       34  32  92 E9        30.31R VSB 3/4 WCI  27
PECOS          CLOUDY    42  37  84 NE9       30.28R WCI  36
PRESIDIO       FAIR      65  37  36 NE7       30.08R
SEMINOLE       CLOUDY    33  32  98 E9        30.32R WCI  25
SNYDER         CLOUDY    31  30  98 NE6       30.35R FOG     WCI  25
WINK           CLOUDY    39  34  82 E14       30.26R WCI  31
$$
...OTHER STATIONS IN TEXAS...

CITY           SKY/WX    TMP DP  RH WIND       PRES   REMARKS
ABILENE        CLOUDY    32  31  96 N7        30.36R FOG     WCI  26
AMARILLO       CLOUDY    29  25  85 NE10      30.34R WCI  20
AUSTIN         LGT RAIN  41  41 100 N13       30.31R FOG     WCI  34
BROWNSVILLE    CLOUDY    56  54  93 N9        30.20R FOG
CORPUS CHRISTI DRIZZLE   50  49  96 N10       30.23R FOG
DALLAS FTW     CLOUDY    37  34  89 N12       30.36R WCI  29
DEL RIO        CLOUDY    50  46  86 NE5       30.24R
EL PASO        MOCLDY    65  14  14 CALM      30.05R
HOUSTON INT    FOG       51  50  96 N8        30.25R VSB 1/4
LUBBOCK        CLOUDY    31  30  96 E12       30.31R WCI  22
SAN ANGELO     CLOUDY    35  33  92 NE12      30.32R WCI  27
SAN ANTONIO    LGT RAIN  45  42  89 N12       30.27R FOG     WCI  39
WACO           CLOUDY    37  36  96 N10       30.35R FOG     WCI  30
WICHITA FALLS  NOT AVBL
$$
...OTHER LOCATIONS IN NEW MEXICO...

CITY           SKY/WX    TMP DP  RH WIND       PRES   REMARKS
ALAMAGORDO     PTCLDY    61  16  17 SE12      30.07R
ALBUQUERQUE    MOCLDY    53  31  42 S15       30.06R
CANNON AFB     CLOUDY    31  30  97 E9        30.28R FOG     WCI  23
CLOVIS         CLOUDY    30  28  93 E9        30.29R VSB 3/4 WCI  22
HOLLOMAN AFB   PTCLDY    60  19  20 N13       30.05R
ROSWELL        CLOUDY    37  34  89 NW8       30.25R WCI  31
RUIDOSO        PTCLDY    37  36  93 S9        30.22R WCI  31
SANTA FE       CLOUDY    46  32  58 SE13      30.10R
TRUTH OR CONSE MOCLDY    59  22  24 SW6       30.05R
TUCUMCARI      CLOUDY    30  27  88 NE12      30.29R FOG     WCI  20
$$

USA.gov is the U.S. government's official web portal to all federal, state and local government web resources and services.